Regional Weather Roundup
Issued by NWS

Home | Current Version | Previous Version | Graphics & Text | Print | Product List | Glossary Off
Versions: 1 2 3 4 5 6 7 8 9 10 11 12 13 14 15 16 17 18 19 20 21 22 23 24 25 26 27 28 29 30 31 32 33 34 35 36 37 38 39 40 41 42 43 44 45 46 47 48 49 50

000
ASUS43 KLOT 311610
RWRIL

ILLINOIS REGIONAL WEATHER ROUNDUP
NATIONAL WEATHER SERVICE CHICAGO/ROMEOVILLE IL
1000 AM CST SAT JAN 31 2015

NOTE: "FAIR" INDICATES FEW OR NO CLOUDS BELOW 12,000 FEET WITH NO
SIGNIFICANT WEATHER AND/OR OBSTRUCTIONS TO VISIBILITY.

* THESE STATIONS ARE NOT UNDER NWS QUALITY CONTROL. THEY ALSO MAY NOT
  REPORT WEATHER SUCH AS PRECIPITATION OR FOG.

ILZ001-002-007-009-015-016-024-311700-
NORTHWEST ILLINOIS

CITY           SKY/WX    TMP DP  RH WIND       PRES   REMARKS
MOLINE         CLOUDY    35  26  69 SW8       30.23R WCI  29
STERLING*      PTSUNNY   34  25  69 W7        30.23R WCI  28
SAVANNA*       PTSUNNY   32  24  72 SW3       30.22S
$$

ILZ003-004-008-010-011-017-018-311700-
NORTH CENTRAL ILLINOIS

CITY           SKY/WX    TMP DP  RH WIND       PRES   REMARKS
ROCKFORD       PTSUNNY   31  21  66 SW7       30.22F WCI  24
FREEPORT*      PTSUNNY   29  22  73 W10       30.21S WCI  20
ROCHELLE*      PTSUNNY   29  23  78 SW8       30.22F WCI  21
DE KALB*       PTSUNNY   29  21  72 SW9       30.21F WCI  21
PERU*          CLOUDY    33  25  70 SW9       30.24S WCI  26
$$

ILZ005-006-012>014-019>023-311700-
NORTHEAST ILLINOIS

CITY           SKY/WX    TMP DP  RH WIND       PRES   REMARKS
CHICAGO-OHARE  PTSUNNY   31  20  63 SW12      30.21F WCI  22
CHICAGO-MIDWAY PTSUNNY   34  22  61 SW9       30.23F WCI  27
AURORA         PTSUNNY   32  22  66 SW9       30.23S WCI  24
LANSING*       MOSUNNY   33  24  69 SW9       30.25F WCI  25
JOLIET*        MOSUNNY   32  24  71 SW6       30.24F WCI  26
WAUKEGAN       SUNNY     31  19  61 SW12      30.19F WCI  22
DUPAGE AIRPORT MOSUNNY   31  21  66 SW13      30.21F WCI  21
KANKAKEE*      MOSUNNY   33  27  80 SW12      30.27F WCI  24
WHEELING       MOSUNNY   31  19  61 SW10      30.23F WCI  22
MORRIS*        PTSUNNY   33  27  76 SW8       30.23F WCI  27
ROMEOVILLE*    MOSUNNY   32  23  69 SW9       30.24S WCI  24
NORTHERLY ISL    N/A     33  21  61 SW7         N/A  WCI  27
$$

LMZ740>746-311700-
SOUTHERN LAKE MICHIGAN

STATION/POSITION SKY/WX   TEMP    WIND        PRES    VSBY  WAVE
                          AIR SEA DIR/SP/G                  HT/PER
                          (F)     (DEG/KT/KT) (MB)    (MI)  (FT/S)
WAUKEGAN HARBOR            31     260/ 14/ 19   N/A
HARRISON CRIB              31     240/ 14/ 18   N/A
BURNHAM HARBOR             33     250/  8/ 13   N/A
CALUMET HARBOR             32     220/ 10/ 15   N/A
MICHIGAN CITY              31     200/ 15/ 17   N/A
$$

ILZ025>027-034>036-040-047-049-050-058-095>099-311700-
WEST-CENTRAL ILLINOIS

CITY           SKY/WX    TMP DP  RH WIND       PRES   REMARKS
QUINCY         CLOUDY    35  23  61 SW8       30.28R WCI  29
GALESBURG*     CLOUDY    33  26  75 SW7       30.25S WCI  27
MACOMB*        CLOUDY    35  26  71 SW7       30.28S WCI  29
JACKSONVILLE*  CLOUDY    37  25  60 S5        30.28F WCI  33
PITTSFIELD*    CLOUDY    35  26  69 CALM      30.30R
$$

ILZ028>032-037-038-041>044-048-051>054-059>061-311700-
CENTRAL ILLINOIS

CITY           SKY/WX    TMP DP  RH WIND       PRES   REMARKS
PONTIAC        PTSUNNY   34  27  76 SW9       30.26S WCI  27
BLOOMINGTON    CLOUDY    32  26  78 SW13      30.28S WCI  22
DECATUR        CLOUDY    34  26  72 SW10      30.31F WCI  26
PEORIA         CLOUDY    34  24  67 SW8       30.27S WCI  27
LACON*         CLOUDY    32  24  71 SW6       30.25R WCI  26
LINCOLN*       CLOUDY    36  26  68 SW5       30.30F WCI  32
SPRINGFIELD    CLOUDY    36  26  67 SW5       30.30F WCI  32
TAYLORVILLE    CLOUDY    32  28  86 S8        30.31F WCI  25
$$

ILZ033-039-045-046-055>057-062-063-311700-
EAST-CENTRAL ILLINOIS

CITY           SKY/WX    TMP DP  RH WIND       PRES   REMARKS
CHAMPAIGN      CLOUDY    33  26  75 SW13      30.30F WCI  24
DANVILLE*      MOSUNNY   32  25  76 SW13      30.28S WCI  22
RANTOUL*       PTSUNNY   34  28  79 SW12G17   30.29F WCI  25
MATTOON        CLOUDY    33  23  66 S12       30.32S WCI  24
PARIS*         PTSUNNY   33  28  80 SW12      30.34S WCI  24
$$

ILZ079-100>102-311700-
SOUTHWEST ILLINOIS

CITY           SKY/WX    TMP DP  RH WIND       PRES   REMARKS
ALTON          CLOUDY    34  27  75 S7        30.34S WCI  28
BELLEVILLE     CLOUDY    35  27  74 S6        30.35S WCI  30
CAHOKIA*       CLOUDY    38  27  64 CALM      30.34F
SPARTA*        CLOUDY    35  24  64 S12G17    30.37S WCI  27
$$

ILZ064>066-069>071-074>076-080>082-084>086-088>090-092>094-311700-
SOUTH-CENTRAL ILLINOIS

CITY           SKY/WX    TMP DP  RH WIND       PRES   REMARKS
CARBONDALE     CLOUDY    36  25  64 S8        30.38F WCI  30
CAIRO*         CLOUDY    40  29  65 S6        30.40S
EFFINGHAM*     CLOUDY    34  24  67 S7        30.36F WCI  27
MARION         CLOUDY    37  27  65 S8        30.39F WCI  31
MT. VERNON     CLOUDY    36  27  69 SW6       30.37F WCI  31
CENTRALIA*     CLOUDY    35  26  70 S6        30.35F WCI  30
SALEM*         CLOUDY    36  27  68 S7        30.36S WCI  31
METROPOLIS*    CLOUDY    36  28  72 S5        30.39F WCI  32
$$

ILZ067-068-072-073-078-083-087-091-311700-
SOUTHEAST ILLINOIS

CITY           SKY/WX    TMP DP  RH WIND       PRES   REMARKS
LAWRENCEVILLE  CLOUDY    34  26  72 SW12      30.39S WCI  25
FLORA*         CLOUDY    33  27  76 SW8       30.37S WCI  27
FAIRFIELD*     CLOUDY    34  28  79 S6        30.38S WCI  28
HARRISBURG*    CLOUDY    34  28  78 S3        30.40F
ROBINSON*      CLOUDY    34  26  74 SW9       30.39S WCI  26
CARMI*         CLOUDY    37  31  78 S7        30.40S WCI  31
$$

ABBREVIATIONS USED IN REMARKS
   TC - TEMPERATURE IN CELSIUS
  WCI - WIND CHILL INDEX
   HX - HEAT INDEX
  VSB - VISIBILITY
$$



USA.gov is the U.S. government's official web portal to all federal, state and local government web resources and services.